Time,TemperatureF,DewpointF,PressureIn,WindDirection,WindDirectionDegrees,WindSpeedMPH,WindSpeedGustMPH,Humidity,HourlyPrecipIn,Conditions,Clouds,dailyrainin,SoftwareType,DateUTC
2013-05-10 00:04:00,57.9,53.7,29.85,NW,315,9.9,-999.0,86,-99.99,,,0.00,Acu-Link.com,2013-05-10 05:04:00,
2013-05-10 00:19:00,57.7,53.5,29.85,North,0,5.8,-999.0,86,-99.99,,,0.00,Acu-Link.com,2013-05-10 05:19:00,
2013-05-10 00:35:00,57.9,54.1,29.85,NNW,337,7.8,-999.0,87,-99.99,,,0.00,Acu-Link.com,2013-05-10 05:35:00,
2013-05-10 00:50:00,57.9,53.7,29.85,NNW,337,8.9,-999.0,86,-99.99,,,0.00,Acu-Link.com,2013-05-10 05:50:00,
2013-05-10 01:05:00,57.9,54.1,29.86,NE,45,5.8,-999.0,87,-99.99,,,0.00,Acu-Link.com,2013-05-10 06:05:00,
2013-05-10 01:21:00,57.9,54.7,29.86,NW,315,7.8,-999.0,89,-99.99,,,0.00,Acu-Link.com,2013-05-10 06:21:00,
2013-05-10 01:36:00,57.9,54.4,29.86,North,0,9.9,-999.0,88,-99.99,,,0.00,Acu-Link.com,2013-05-10 06:36:00,
2013-05-10 01:51:00,57.7,54.2,29.86,West,270,7.3,-999.0,88,-99.99,,,0.00,Acu-Link.com,2013-05-10 06:51:00,
2013-05-10 02:06:00,56.5,51.1,29.87,NNW,337,10.9,-999.0,82,-99.99,,,0.00,Acu-Link.com,2013-05-10 07:06:00,
2013-05-10 02:21:00,55.4,51.6,29.88,NW,315,10.4,-999.0,87,-99.99,,,0.00,Acu-Link.com,2013-05-10 07:21:00,
2013-05-10 02:41:00,54.5,50.7,29.88,NNW,337,9.4,-999.0,87,-99.99,,,0.00,Acu-Link.com,2013-05-10 07:41:00,
2013-05-10 02:56:00,54.3,50.8,29.88,NW,315,10.4,-999.0,88,-99.99,,,0.00,Acu-Link.com,2013-05-10 07:56:00,
2013-05-10 03:12:00,54.1,50.3,29.88,NNW,337,11.4,-999.0,87,-99.99,,,0.00,Acu-Link.com,2013-05-10 08:12:00,
2013-05-10 03:27:00,54.1,50.0,29.88,NNW,337,6.3,-999.0,86,-99.99,,,0.00,Acu-Link.com,2013-05-10 08:27:00,
2013-05-10 03:43:00,54.0,49.0,29.88,NNE,22,9.4,-999.0,83,-99.99,,,0.00,Acu-Link.com,2013-05-10 08:43:00,
2013-05-10 03:58:00,53.6,48.6,29.89,NW,315,9.9,-999.0,83,-99.99,,,0.00,Acu-Link.com,2013-05-10 08:58:00,
2013-05-10 04:13:00,53.2,48.8,29.89,North,0,9.4,-999.0,85,-99.99,,,0.00,Acu-Link.com,2013-05-10 09:13:00,
2013-05-10 04:28:00,52.9,48.2,29.90,NNE,22,6.3,-999.0,84,-99.99,,,0.00,Acu-Link.com,2013-05-10 09:28:00,
2013-05-10 04:43:00,52.3,47.6,29.90,NNW,337,8.3,-999.0,84,-99.99,,,0.00,Acu-Link.com,2013-05-10 09:43:00,
2013-05-10 04:58:00,52.3,47.9,29.90,North,0,8.9,-999.0,85,-99.99,,,0.00,Acu-Link.com,2013-05-10 09:58:00,
2013-05-10 05:14:00,52.0,47.9,29.91,NW,315,11.4,-999.0,86,-99.99,,,0.00,Acu-Link.com,2013-05-10 10:14:00,
2013-05-10 05:29:00,51.4,48.0,29.91,NNW,337,12.5,-999.0,88,-99.99,,,0.00,Acu-Link.com,2013-05-10 10:29:00,
2013-05-10 05:44:00,51.1,47.7,29.91,North,0,10.4,-999.0,88,-99.99,,,0.00,Acu-Link.com,2013-05-10 10:44:00,
2013-05-10 05:59:00,50.9,47.8,29.91,NW,315,12.5,-999.0,89,-99.99,,,0.00,Acu-Link.com,2013-05-10 10:59:00,
2013-05-10 06:15:00,50.5,48.3,29.92,West,270,9.4,-999.0,92,-99.99,,,0.00,Acu-Link.com,2013-05-10 11:15:00,
2013-05-10 06:30:00,50.4,48.2,29.93,WNW,292,4.2,-999.0,92,-99.99,,,0.00,Acu-Link.com,2013-05-10 11:30:00,
2013-05-10 06:45:00,50.4,47.9,29.93,WNW,292,8.9,-999.0,91,-99.99,,,0.00,Acu-Link.com,2013-05-10 11:45:00,
2013-05-10 07:00:00,50.4,47.9,29.93,NW,315,8.3,-999.0,91,-99.99,,,0.00,Acu-Link.com,2013-05-10 12:00:00,
2013-05-10 07:15:00,50.5,48.0,29.94,NNW,337,9.9,-999.0,91,-99.99,,,0.00,Acu-Link.com,2013-05-10 12:15:00,
2013-05-10 07:31:00,50.5,48.0,29.95,NW,315,11.4,-999.0,91,-99.99,,,0.00,Acu-Link.com,2013-05-10 12:31:00,
2013-05-10 07:46:00,50.5,48.0,29.95,North,0,8.9,-999.0,91,-99.99,,,0.00,Acu-Link.com,2013-05-10 12:46:00,
2013-05-10 08:01:00,50.9,48.4,29.95,NNW,337,9.9,-999.0,91,-99.99,,,0.00,Acu-Link.com,2013-05-10 13:01:00,
2013-05-10 08:16:00,50.9,48.1,29.95,NNW,337,7.3,-999.0,90,-99.99,,,0.00,Acu-Link.com,2013-05-10 13:16:00,
2013-05-10 08:32:00,51.1,48.3,29.95,NW,315,8.9,-999.0,90,-99.99,,,0.00,Acu-Link.com,2013-05-10 13:32:00,
2013-05-10 08:47:00,51.4,48.6,29.96,NW,315,9.9,-999.0,90,-99.99,,,0.00,Acu-Link.com,2013-05-10 13:47:00,
2013-05-10 09:02:00,52.0,48.3,29.95,NW,315,12.5,-999.0,87,-99.99,,,0.00,Acu-Link.com,2013-05-10 14:02:00,
2013-05-10 09:17:00,52.7,48.3,29.94,NNW,337,17.6,-999.0,85,-99.99,,,0.00,Acu-Link.com,2013-05-10 14:17:00,
2013-05-10 09:32:00,52.9,48.5,29.95,North,0,18.6,-999.0,85,-99.99,,,0.00,Acu-Link.com,2013-05-10 14:32:00,
2013-05-10 09:48:00,54.1,48.7,29.94,NNW,337,11.4,-999.0,82,-99.99,,,0.00,Acu-Link.com,2013-05-10 14:48:00,
2013-05-10 10:03:00,54.5,49.1,29.94,NW,315,10.9,-999.0,82,-99.99,,,0.00,Acu-Link.com,2013-05-10 15:03:00,
2013-05-10 10:18:00,54.0,49.3,29.94,NNW,337,8.9,-999.0,84,-99.99,,,0.00,Acu-Link.com,2013-05-10 15:18:00,
2013-05-10 10:33:00,54.3,48.9,29.95,North,0,8.3,-999.0,82,-99.99,,,0.00,Acu-Link.com,2013-05-10 15:33:00,
2013-05-10 10:48:00,55.0,49.3,29.95,North,0,8.9,-999.0,81,-99.99,,,0.00,Acu-Link.com,2013-05-10 15:48:00,
2013-05-10 11:04:00,56.1,50.0,29.95,NNW,337,11.9,-999.0,80,-99.99,,,0.00,Acu-Link.com,2013-05-10 16:04:00,
2013-05-10 11:19:00,59.2,50.5,29.94,NNE,22,8.9,-999.0,73,-99.99,,,0.00,Acu-Link.com,2013-05-10 16:19:00,
2013-05-10 11:34:00,59.2,50.2,29.95,NNW,337,7.3,-999.0,72,-99.99,,,0.00,Acu-Link.com,2013-05-10 16:34:00,
2013-05-10 11:50:00,59.9,49.7,29.95,North,0,9.9,-999.0,69,-99.99,,,0.00,Acu-Link.com,2013-05-10 16:50:00,
2013-05-10 12:05:00,61.2,51.3,29.95,NW,315,5.8,-999.0,70,-99.99,,,0.00,Acu-Link.com,2013-05-10 17:05:00,
2013-05-10 12:20:00,63.3,52.6,29.96,NNW,337,10.4,-999.0,68,-99.99,,,0.00,Acu-Link.com,2013-05-10 17:20:00,
2013-05-10 12:35:00,62.2,51.5,29.96,WNW,292,7.3,-999.0,68,-99.99,,,0.00,Acu-Link.com,2013-05-10 17:35:00,
2013-05-10 12:50:00,64.4,53.2,29.96,NW,315,5.3,-999.0,67,-99.99,,,0.00,Acu-Link.com,2013-05-10 17:50:00,
2013-05-10 13:06:00,63.7,50.9,29.96,West,270,3.7,-999.0,63,-99.99,,,0.00,Acu-Link.com,2013-05-10 18:06:00,
2013-05-10 13:21:00,64.8,51.5,29.95,NW,315,6.8,-999.0,62,-99.99,,,0.00,Acu-Link.com,2013-05-10 18:21:00,
2013-05-10 13:36:00,65.3,51.5,29.95,NNW,337,5.8,-999.0,61,-99.99,,,0.00,Acu-Link.com,2013-05-10 18:36:00,
2013-05-10 13:51:00,66.2,50.0,29.95,NNW,337,9.4,-999.0,56,-99.99,,,0.00,Acu-Link.com,2013-05-10 18:51:00,
2013-05-10 14:07:00,67.3,50.1,29.95,NNW,337,11.9,-999.0,54,-99.99,,,0.00,Acu-Link.com,2013-05-10 19:07:00,
2013-05-10 14:22:00,65.7,51.4,29.95,North,0,6.3,-999.0,60,-99.99,,,0.00,Acu-Link.com,2013-05-10 19:22:00,
2013-05-10 14:37:00,67.1,49.4,29.94,North,0,8.9,-999.0,53,-99.99,,,0.00,Acu-Link.com,2013-05-10 19:37:00,
2013-05-10 14:52:00,68.7,50.9,29.94,NW,315,6.8,-999.0,53,-99.99,,,0.00,Acu-Link.com,2013-05-10 19:52:00,
2013-05-10 15:07:00,67.5,47.7,29.94,NNW,337,11.4,-999.0,49,-99.99,,,0.00,Acu-Link.com,2013-05-10 20:07:00,
2013-05-10 15:23:00,68.2,47.8,29.92,NW,315,9.4,-999.0,48,-99.99,,,0.00,Acu-Link.com,2013-05-10 20:23:00,
2013-05-10 15:38:00,69.8,46.9,29.91,NNW,337,14.0,-999.0,44,-99.99,,,0.00,Acu-Link.com,2013-05-10 20:38:00,
2013-05-10 15:53:00,69.4,47.1,29.91,WNW,292,11.4,-999.0,45,-99.99,,,0.00,Acu-Link.com,2013-05-10 20:53:00,
2013-05-10 16:08:00,68.4,45.0,29.90,NNE,22,7.3,-999.0,43,-99.99,,,0.00,Acu-Link.com,2013-05-10 21:08:00,
2013-05-10 16:23:00,69.1,45.7,29.90,West,270,16.1,-999.0,43,-99.99,,,0.00,Acu-Link.com,2013-05-10 21:23:00,
2013-05-10 16:39:00,69.1,45.0,29.89,ENE,67,13.5,-999.0,42,-99.99,,,0.00,Acu-Link.com,2013-05-10 21:39:00,
2013-05-10 16:54:00,69.3,45.2,29.89,NNW,337,9.9,-999.0,42,-99.99,,,0.00,Acu-Link.com,2013-05-10 21:54:00,
2013-05-10 17:09:00,69.6,44.8,29.89,WNW,292,9.4,-999.0,41,-99.99,,,0.00,Acu-Link.com,2013-05-10 22:09:00,
2013-05-10 17:24:00,69.3,45.2,29.89,NNW,337,7.8,-999.0,42,-99.99,,,0.00,Acu-Link.com,2013-05-10 22:24:00,
2013-05-10 17:40:00,68.2,44.2,29.89,North,0,6.3,-999.0,42,-99.99,,,0.00,Acu-Link.com,2013-05-10 22:40:00,
2013-05-10 17:55:00,68.2,44.8,29.89,NNW,337,5.8,-999.0,43,-99.99,,,0.00,Acu-Link.com,2013-05-10 22:55:00,
2013-05-10 18:10:00,68.5,44.5,29.89,WNW,292,5.8,-999.0,42,-99.99,,,0.00,Acu-Link.com,2013-05-10 23:10:00,
2013-05-10 18:25:00,70.9,45.4,29.89,NNW,337,7.3,-999.0,40,-99.99,,,0.00,Acu-Link.com,2013-05-10 23:25:00,
2013-05-10 18:40:00,72.9,45.8,29.88,West,270,2.7,-999.0,38,-99.99,,,0.00,Acu-Link.com,2013-05-10 23:40:00,
2013-05-10 18:56:00,71.8,44.1,29.88,NNW,337,4.7,-999.0,37,-99.99,,,0.00,Acu-Link.com,2013-05-10 23:56:00,
2013-05-10 19:11:00,70.7,45.8,29.88,West,270,5.3,-999.0,41,-99.99,,,0.00,Acu-Link.com,2013-05-11 00:11:00,
2013-05-10 19:26:00,68.2,46.0,29.89,NNW,337,2.2,-999.0,45,-99.99,,,0.00,Acu-Link.com,2013-05-11 00:26:00,
2013-05-10 19:41:00,65.8,45.6,29.89,WNW,292,3.7,-999.0,48,-99.99,,,0.00,Acu-Link.com,2013-05-11 00:41:00,
2013-05-10 19:56:00,64.9,45.3,29.89,WNW,292,3.2,-999.0,49,-99.99,,,0.00,Acu-Link.com,2013-05-11 00:56:00,
2013-05-10 20:12:00,64.2,45.2,29.89,West,270,2.2,-999.0,50,-99.99,,,0.00,Acu-Link.com,2013-05-11 01:12:00,
2013-05-10 20:27:00,63.1,44.7,29.90,West,270,2.2,-999.0,51,-99.99,,,0.00,Acu-Link.com,2013-05-11 01:27:00,
2013-05-10 20:42:00,62.2,44.9,29.90,WSW,247,1.7,-999.0,53,-99.99,,,0.00,Acu-Link.com,2013-05-11 01:42:00,
2013-05-10 20:58:00,61.5,44.7,29.90,WSW,247,3.7,-999.0,54,-99.99,,,0.00,Acu-Link.com,2013-05-11 01:58:00,
2013-05-10 21:13:00,61.3,44.5,29.90,WNW,292,2.2,-999.0,54,-99.99,,,0.00,Acu-Link.com,2013-05-11 02:13:00,
2013-05-10 21:28:00,61.0,44.2,29.90,West,270,2.2,-999.0,54,-99.99,,,0.00,Acu-Link.com,2013-05-11 02:28:00,
2013-05-10 21:43:00,60.4,43.7,29.91,West,270,2.2,-999.0,54,-99.99,,,0.00,Acu-Link.com,2013-05-11 02:43:00,
2013-05-10 21:58:00,60.1,43.9,29.92,WSW,247,2.7,-999.0,55,-99.99,,,0.00,Acu-Link.com,2013-05-11 02:58:00,
2013-05-10 22:14:00,59.9,43.7,29.93,WSW,247,2.7,-999.0,55,-99.99,,,0.00,Acu-Link.com,2013-05-11 03:14:00,
2013-05-10 22:29:00,59.7,43.5,29.93,WSW,247,2.7,-999.0,55,-99.99,,,0.00,Acu-Link.com,2013-05-11 03:29:00,
2013-05-10 22:44:00,59.5,43.3,29.93,SW,225,3.2,-999.0,55,-99.99,,,0.00,Acu-Link.com,2013-05-11 03:44:00,
2013-05-10 22:59:00,58.5,43.3,29.93,SSW,202,2.2,-999.0,57,-99.99,,,0.00,Acu-Link.com,2013-05-11 03:59:00,
2013-05-10 23:14:00,57.4,43.6,29.93,SSW,202,2.2,-999.0,60,-99.99,,,0.00,Acu-Link.com,2013-05-11 04:14:00,
2013-05-10 23:30:00,56.7,44.2,29.93,SSW,202,2.2,-999.0,63,-99.99,,,0.00,Acu-Link.com,2013-05-11 04:30:00,
2013-05-10 23:45:00,55.8,44.2,29.94,SSW,202,2.2,-999.0,65,-99.99,,,0.00,Acu-Link.com,2013-05-11 04:45:00,